GSAT0219 (PRN E36)

Last updated on Jan. 20, 2021, 6:22 a.m. UTC

1 43566U 18060C   21018.88725651 -.00000072  00000-0  00000-0 0  9993
2 43566  56.9402  35.1596 0005619 276.5421  83.4313  1.70476011 15510
UTC
Height (km)
Latitude
Longitude
Inclination
Orbital Period
UTC large
Height (km)
Speed (km/s)
/
Latitude / Longitude
Inclination (degrees)
Orbital Period (minutes)
Azimuth
Elevation
Range (km)
Doppler Factor
iOS Compass Heading
iOS Angle

Next 30 passes for location: Hong Kong

Rise time Rise Azimuth (degrees) Set time Set Azimuth (degrees) Duration Max altitude (degrees)

No matching passes for this satellites